Year,Month,Day,Hour,Minute,Value (Times are PST for temperature in C)
2017,09,02,00,00,17.20
2017,09,02,00,01,17.20
2017,09,02,00,02,17.20
2017,09,02,00,03,17.20
2017,09,02,00,04,17.20
2017,09,02,00,05,17.10
2017,09,02,00,06,17.10
2017,09,02,00,07,17.10
2017,09,02,00,08,17.10
2017,09,02,00,09,17.00
2017,09,02,00,10,17.00
2017,09,02,00,11,17.00
2017,09,02,00,12,16.90
2017,09,02,00,13,16.90
2017,09,02,00,14,16.90
2017,09,02,00,15,16.90
2017,09,02,00,16,16.90
2017,09,02,00,17,16.90
2017,09,02,00,18,16.80
2017,09,02,00,19,16.80
2017,09,02,00,20,16.80
2017,09,02,00,21,16.80
2017,09,02,00,22,16.80
2017,09,02,00,23,16.80
2017,09,02,00,24,16.80
2017,09,02,00,25,16.70
2017,09,02,00,26,16.70
2017,09,02,00,27,16.70
2017,09,02,00,28,16.70
2017,09,02,00,29,16.70
2017,09,02,00,30,16.60
2017,09,02,00,31,16.60
2017,09,02,00,32,16.60
2017,09,02,00,33,16.60
2017,09,02,00,34,16.50
2017,09,02,00,35,16.50
2017,09,02,00,36,16.50
2017,09,02,00,37,16.50
2017,09,02,00,38,16.40
2017,09,02,00,39,16.40
2017,09,02,00,40,16.40
2017,09,02,00,41,16.40
2017,09,02,00,42,16.40
2017,09,02,00,43,16.40
2017,09,02,00,44,16.40
2017,09,02,00,45,16.30
2017,09,02,00,46,16.30
2017,09,02,00,47,16.30
2017,09,02,00,48,16.30
2017,09,02,00,49,16.30
2017,09,02,00,50,16.30
2017,09,02,00,51,16.30
2017,09,02,00,52,16.30
2017,09,02,00,53,16.30
2017,09,02,00,54,16.30
2017,09,02,00,55,16.20
2017,09,02,00,56,16.20
2017,09,02,00,57,16.20
2017,09,02,00,58,16.20
2017,09,02,00,59,16.20
2017,09,02,01,00,16.20
2017,09,02,01,01,16.20
2017,09,02,01,02,16.20
2017,09,02,01,03,16.20
2017,09,02,01,04,16.20
2017,09,02,01,05,16.20
2017,09,02,01,06,16.10
2017,09,02,01,07,16.10
2017,09,02,01,08,16.10
2017,09,02,01,09,16.10
2017,09,02,01,10,16.10
2017,09,02,01,11,16.10
2017,09,02,01,12,16.10
2017,09,02,01,13,16.10
2017,09,02,01,14,16.10
2017,09,02,01,15,16.10
2017,09,02,01,16,16.00
2017,09,02,01,17,16.00
2017,09,02,01,18,16.00
2017,09,02,01,19,16.00
2017,09,02,01,20,16.00
2017,09,02,01,21,15.90
2017,09,02,01,22,15.90
2017,09,02,01,23,15.90
2017,09,02,01,24,15.90
2017,09,02,01,25,15.90
2017,09,02,01,26,15.90
2017,09,02,01,27,15.80
2017,09,02,01,28,15.80
2017,09,02,01,29,15.80
2017,09,02,01,30,15.80
2017,09,02,01,31,15.80
2017,09,02,01,32,15.80
2017,09,02,01,33,15.80
2017,09,02,01,34,15.80
2017,09,02,01,35,15.70
2017,09,02,01,36,15.70
2017,09,02,01,37,15.70
2017,09,02,01,38,15.70
2017,09,02,01,39,15.70
2017,09,02,01,40,15.70
2017,09,02,01,41,15.60
2017,09,02,01,42,15.60
2017,09,02,01,43,15.60
2017,09,02,01,44,15.60
2017,09,02,01,45,15.60
2017,09,02,01,46,15.60
2017,09,02,01,47,15.60
2017,09,02,01,48,15.60
2017,09,02,01,49,15.60
2017,09,02,01,50,15.50
2017,09,02,01,51,15.50
2017,09,02,01,52,15.50
2017,09,02,01,53,15.50
2017,09,02,01,54,15.40
2017,09,02,01,55,15.40
2017,09,02,01,56,15.40
2017,09,02,01,57,15.40
2017,09,02,01,58,15.40
2017,09,02,01,59,15.30
2017,09,02,02,00,15.30
2017,09,02,02,01,15.30
2017,09,02,02,02,15.30
2017,09,02,02,03,15.30
2017,09,02,02,04,15.30
2017,09,02,02,05,15.30
2017,09,02,02,06,15.30
2017,09,02,02,07,15.30
2017,09,02,02,08,15.30
2017,09,02,02,09,15.30
2017,09,02,02,10,15.30
2017,09,02,02,11,15.30
2017,09,02,02,12,15.30
2017,09,02,02,13,15.30
2017,09,02,02,14,15.30
2017,09,02,02,15,15.30
2017,09,02,02,16,15.30
2017,09,02,02,17,15.30
2017,09,02,02,18,15.30
2017,09,02,02,19,15.30
2017,09,02,02,20,15.30
2017,09,02,02,21,15.30
2017,09,02,02,22,15.30
2017,09,02,02,23,15.30
2017,09,02,02,24,15.30
2017,09,02,02,25,15.30
2017,09,02,02,26,15.30
2017,09,02,02,27,15.40
2017,09,02,02,28,15.40
2017,09,02,02,29,15.40
2017,09,02,02,30,15.30
2017,09,02,02,31,15.30
2017,09,02,02,32,15.30
2017,09,02,02,33,15.30
2017,09,02,02,34,15.30
2017,09,02,02,35,15.30
2017,09,02,02,36,15.30
2017,09,02,02,37,15.30
2017,09,02,02,38,15.20
2017,09,02,02,39,15.20
2017,09,02,02,40,15.20
2017,09,02,02,41,15.20
2017,09,02,02,42,15.20
2017,09,02,02,43,15.20
2017,09,02,02,44,15.10
2017,09,02,02,45,15.10
2017,09,02,02,46,15.10
2017,09,02,02,47,15.10
2017,09,02,02,48,15.00
2017,09,02,02,49,15.00
2017,09,02,02,50,15.00
2017,09,02,02,51,15.00
2017,09,02,02,52,15.00
2017,09,02,02,53,15.00
2017,09,02,02,54,15.00
2017,09,02,02,55,15.00
2017,09,02,02,56,15.00
2017,09,02,02,57,14.90
2017,09,02,02,58,14.90
2017,09,02,02,59,14.90
2017,09,02,03,00,14.90
2017,09,02,03,01,14.80
2017,09,02,03,02,14.80
2017,09,02,03,03,14.80
2017,09,02,03,04,14.80
2017,09,02,03,05,14.80
2017,09,02,03,06,14.80
2017,09,02,03,07,14.80
2017,09,02,03,08,14.80
2017,09,02,03,09,14.70
2017,09,02,03,10,14.70
2017,09,02,03,11,14.70
2017,09,02,03,12,14.70
2017,09,02,03,13,14.70
2017,09,02,03,14,14.70
2017,09,02,03,15,14.70
2017,09,02,03,16,14.70
2017,09,02,03,17,14.70
2017,09,02,03,18,14.70
2017,09,02,03,19,14.70
2017,09,02,03,20,14.70
2017,09,02,03,21,14.70
2017,09,02,03,22,14.70
2017,09,02,03,23,14.70
2017,09,02,03,24,14.70
2017,09,02,03,25,14.70
2017,09,02,03,26,14.60
2017,09,02,03,27,14.60
2017,09,02,03,28,14.60
2017,09,02,03,29,14.60
2017,09,02,03,30,14.60
2017,09,02,03,31,14.60
2017,09,02,03,32,14.60
2017,09,02,03,33,14.50
2017,09,02,03,34,14.50
2017,09,02,03,35,14.50
2017,09,02,03,36,14.50
2017,09,02,03,37,14.50
2017,09,02,03,38,14.40
2017,09,02,03,39,14.40
2017,09,02,03,40,14.40
2017,09,02,03,41,14.40
2017,09,02,03,42,14.40
2017,09,02,03,43,14.40
2017,09,02,03,44,14.40
2017,09,02,03,45,14.30
2017,09,02,03,46,14.30
2017,09,02,03,47,14.30
2017,09,02,03,48,14.30
2017,09,02,03,49,14.30
2017,09,02,03,50,14.30
2017,09,02,03,51,14.30
2017,09,02,03,52,14.30
2017,09,02,03,53,14.30
2017,09,02,03,54,14.30
2017,09,02,03,55,14.30
2017,09,02,03,56,14.30
2017,09,02,03,57,14.30
2017,09,02,03,58,14.30
2017,09,02,03,59,14.30
2017,09,02,04,00,14.30
2017,09,02,04,01,14.40
2017,09,02,04,02,14.40
2017,09,02,04,03,14.40
2017,09,02,04,04,14.40
2017,09,02,04,05,14.40
2017,09,02,04,06,14.40
2017,09,02,04,07,14.40
2017,09,02,04,08,14.40
2017,09,02,04,09,14.40
2017,09,02,04,10,14.40
2017,09,02,04,11,14.40
2017,09,02,04,12,14.40
2017,09,02,04,13,14.40
2017,09,02,04,14,14.40
2017,09,02,04,15,14.30
2017,09,02,04,16,14.30
2017,09,02,04,17,14.30
2017,09,02,04,18,14.30
2017,09,02,04,19,14.30
2017,09,02,04,20,14.30
2017,09,02,04,21,14.30
2017,09,02,04,22,14.30
2017,09,02,04,23,14.30
2017,09,02,04,24,14.30
2017,09,02,04,25,14.30
2017,09,02,04,26,14.30
2017,09,02,04,27,14.30
2017,09,02,04,28,14.30
2017,09,02,04,29,14.20
2017,09,02,04,30,14.20
2017,09,02,04,31,14.20
2017,09,02,04,32,14.20
2017,09,02,04,33,14.20
2017,09,02,04,34,14.20
2017,09,02,04,35,14.20
2017,09,02,04,36,14.20
2017,09,02,04,37,14.20
2017,09,02,04,38,14.20
2017,09,02,04,39,14.20
2017,09,02,04,40,14.20
2017,09,02,04,41,14.20
2017,09,02,04,42,14.20
2017,09,02,04,43,14.20
2017,09,02,04,44,14.20
2017,09,02,04,45,14.20
2017,09,02,04,46,14.20
2017,09,02,04,47,14.20
2017,09,02,04,48,14.20
2017,09,02,04,49,14.20
2017,09,02,04,50,14.20
2017,09,02,04,51,14.20
2017,09,02,04,52,14.20
2017,09,02,04,53,14.30
2017,09,02,04,54,14.30
2017,09,02,04,55,14.30
2017,09,02,04,56,14.30
2017,09,02,04,57,14.30
2017,09,02,04,58,14.30
2017,09,02,04,59,14.30
2017,09,02,05,00,14.30
2017,09,02,05,01,14.30
2017,09,02,05,02,14.30
2017,09,02,05,03,14.20
2017,09,02,05,04,14.20
2017,09,02,05,05,14.20
2017,09,02,05,06,14.20
2017,09,02,05,07,14.20
2017,09,02,05,08,14.20
2017,09,02,05,09,14.10
2017,09,02,05,10,14.10
2017,09,02,05,11,14.10
2017,09,02,05,12,14.10
2017,09,02,05,13,14.10
2017,09,02,05,14,14.00
2017,09,02,05,15,14.00
2017,09,02,05,16,14.00
2017,09,02,05,17,14.00
2017,09,02,05,18,13.90
2017,09,02,05,19,13.90
2017,09,02,05,20,13.90
2017,09,02,05,21,13.90
2017,09,02,05,22,13.90
2017,09,02,05,23,13.90
2017,09,02,05,24,13.90
2017,09,02,05,25,13.90
2017,09,02,05,26,13.90
2017,09,02,05,27,13.90
2017,09,02,05,28,13.90
2017,09,02,05,29,13.90
2017,09,02,05,30,13.90
2017,09,02,05,31,13.90
2017,09,02,05,32,13.90
2017,09,02,05,33,13.90
2017,09,02,05,34,13.90
2017,09,02,05,35,13.90
2017,09,02,05,36,13.90
2017,09,02,05,37,13.90
2017,09,02,05,38,13.90
2017,09,02,05,39,13.90
2017,09,02,05,40,13.90
2017,09,02,05,41,13.80
2017,09,02,05,42,13.80
2017,09,02,05,43,13.80
2017,09,02,05,44,13.80
2017,09,02,05,45,13.80
2017,09,02,05,46,13.80
2017,09,02,05,47,13.80
2017,09,02,05,48,13.80
2017,09,02,05,49,13.80
2017,09,02,05,50,13.80
2017,09,02,05,51,13.80
2017,09,02,05,52,13.80
2017,09,02,05,53,13.80
2017,09,02,05,54,13.70
2017,09,02,05,55,13.70
2017,09,02,05,56,13.70
2017,09,02,05,57,13.70
2017,09,02,05,58,13.70
2017,09,02,05,59,13.70
2017,09,02,06,00,13.70
2017,09,02,06,01,13.60
2017,09,02,06,02,13.60
2017,09,02,06,03,13.60
2017,09,02,06,04,13.60
2017,09,02,06,05,13.60
2017,09,02,06,06,13.60
2017,09,02,06,07,13.60
2017,09,02,06,08,13.60
2017,09,02,06,09,13.50
2017,09,02,06,10,13.50
2017,09,02,06,11,13.60
2017,09,02,06,12,13.60
2017,09,02,06,13,13.60
2017,09,02,06,14,13.60
2017,09,02,06,15,13.60
2017,09,02,06,16,13.60
2017,09,02,06,17,13.60
2017,09,02,06,18,13.60
2017,09,02,06,19,13.70
2017,09,02,06,20,13.70
2017,09,02,06,21,13.70
2017,09,02,06,22,13.70
2017,09,02,06,23,13.70
2017,09,02,06,24,13.70
2017,09,02,06,25,13.70
2017,09,02,06,26,13.70
2017,09,02,06,27,13.70
2017,09,02,06,28,13.60
2017,09,02,06,29,13.60
2017,09,02,06,30,13.60
2017,09,02,06,31,13.60
2017,09,02,06,32,13.60
2017,09,02,06,33,13.60
2017,09,02,06,34,13.60
2017,09,02,06,35,13.60
2017,09,02,06,36,13.60
2017,09,02,06,37,13.60
2017,09,02,06,38,13.50
2017,09,02,06,39,13.50
2017,09,02,06,40,13.50
2017,09,02,06,41,13.50
2017,09,02,06,42,13.50
2017,09,02,06,43,13.50
2017,09,02,06,44,13.50
2017,09,02,06,45,13.50
2017,09,02,06,46,13.50
2017,09,02,06,47,13.50
2017,09,02,06,48,13.50
2017,09,02,06,49,13.50
2017,09,02,06,50,13.50
2017,09,02,06,51,13.50
2017,09,02,06,52,13.50
2017,09,02,06,53,13.40
2017,09,02,06,54,13.40
2017,09,02,06,55,13.40
2017,09,02,06,56,13.40
2017,09,02,06,57,13.40
2017,09,02,06,58,13.40
2017,09,02,06,59,13.40
2017,09,02,07,00,13.40
2017,09,02,07,01,13.40
2017,09,02,07,02,13.40
2017,09,02,07,03,13.40
2017,09,02,07,04,13.40
2017,09,02,07,05,13.40
2017,09,02,07,06,13.40
2017,09,02,07,07,13.40
2017,09,02,07,08,13.50
2017,09,02,07,09,13.50
2017,09,02,07,10,13.50
2017,09,02,07,11,13.50
2017,09,02,07,12,13.60
2017,09,02,07,13,13.60
2017,09,02,07,14,13.60
2017,09,02,07,15,13.60
2017,09,02,07,16,13.60
2017,09,02,07,17,13.60
2017,09,02,07,18,13.60
2017,09,02,07,19,13.60
2017,09,02,07,20,13.70
2017,09,02,07,21,13.70
2017,09,02,07,22,13.70
2017,09,02,07,23,13.70
2017,09,02,07,24,13.70
2017,09,02,07,25,13.70
2017,09,02,07,26,13.80
2017,09,02,07,27,13.80
2017,09,02,07,28,13.80
2017,09,02,07,29,13.80
2017,09,02,07,30,13.80
2017,09,02,07,31,13.80
2017,09,02,07,32,13.90
2017,09,02,07,33,13.90
2017,09,02,07,34,13.90
2017,09,02,07,35,13.90
2017,09,02,07,36,14.00
2017,09,02,07,37,14.00
2017,09,02,07,38,14.00
2017,09,02,07,39,14.10
2017,09,02,07,40,14.10
2017,09,02,07,41,14.20
2017,09,02,07,42,14.20
2017,09,02,07,43,14.30
2017,09,02,07,44,14.30
2017,09,02,07,45,14.40
2017,09,02,07,46,14.40
2017,09,02,07,47,14.50
2017,09,02,07,48,14.60
2017,09,02,07,49,14.80
2017,09,02,07,50,14.90
2017,09,02,07,51,15.00
2017,09,02,07,52,15.00
2017,09,02,07,53,15.10
2017,09,02,07,54,15.30
2017,09,02,07,55,15.40
2017,09,02,07,56,15.60
2017,09,02,07,57,15.70
2017,09,02,07,58,15.80
2017,09,02,07,59,16.00
2017,09,02,08,00,16.10
2017,09,02,08,01,16.30
2017,09,02,08,02,16.50
2017,09,02,08,03,16.60
2017,09,02,08,04,16.80
2017,09,02,08,05,17.00
2017,09,02,08,06,17.20
2017,09,02,08,07,17.40
2017,09,02,08,08,17.60
2017,09,02,08,09,17.80
2017,09,02,08,10,18.00
2017,09,02,08,11,18.20
2017,09,02,08,12,18.30
2017,09,02,08,13,18.40
2017,09,02,08,14,18.60
2017,09,02,08,15,18.70
2017,09,02,08,16,18.80
2017,09,02,08,17,19.00
2017,09,02,08,18,19.10
2017,09,02,08,19,19.30
2017,09,02,08,20,19.50
2017,09,02,08,21,19.70
2017,09,02,08,22,19.80
2017,09,02,08,23,20.00
2017,09,02,08,24,20.10
2017,09,02,08,25,20.30
2017,09,02,08,26,20.40
2017,09,02,08,27,20.50
2017,09,02,08,28,20.60
2017,09,02,08,29,20.70
2017,09,02,08,30,20.70
2017,09,02,08,31,20.80
2017,09,02,08,32,20.90
2017,09,02,08,33,20.90
2017,09,02,08,34,20.90
2017,09,02,08,35,20.90
2017,09,02,08,36,20.90
2017,09,02,08,37,20.90
2017,09,02,08,38,20.90
2017,09,02,08,39,20.90
2017,09,02,08,40,20.90
2017,09,02,08,41,20.90
2017,09,02,08,42,21.00
2017,09,02,08,43,21.00
2017,09,02,08,44,21.00
2017,09,02,08,45,21.10
2017,09,02,08,46,21.10
2017,09,02,08,47,21.20
2017,09,02,08,48,21.20
2017,09,02,08,49,21.30
2017,09,02,08,50,21.30
2017,09,02,08,51,21.40
2017,09,02,08,52,21.40
2017,09,02,08,53,21.50
2017,09,02,08,54,21.60
2017,09,02,08,55,21.70
2017,09,02,08,56,21.80
2017,09,02,08,57,21.90
2017,09,02,08,58,21.90
2017,09,02,08,59,22.00
2017,09,02,09,00,22.10
2017,09,02,09,01,22.20
2017,09,02,09,02,22.20
2017,09,02,09,03,22.30
2017,09,02,09,04,22.30
2017,09,02,09,05,22.30
2017,09,02,09,06,22.40
2017,09,02,09,07,22.40
2017,09,02,09,08,22.40
2017,09,02,09,09,22.50
2017,09,02,09,10,22.60
2017,09,02,09,11,22.60
2017,09,02,09,12,22.60
2017,09,02,09,13,22.60
2017,09,02,09,14,22.70
2017,09,02,09,15,22.70
2017,09,02,09,16,22.70
2017,09,02,09,17,22.80
2017,09,02,09,18,22.90
2017,09,02,09,19,22.90
2017,09,02,09,20,23.00
2017,09,02,09,21,23.10
2017,09,02,09,22,23.10
2017,09,02,09,23,23.20
2017,09,02,09,24,23.20
2017,09,02,09,25,23.30
2017,09,02,09,26,23.40
2017,09,02,09,27,23.40
2017,09,02,09,28,23.50
2017,09,02,09,29,23.50
2017,09,02,09,30,23.60
2017,09,02,09,31,23.60
2017,09,02,09,32,23.70
2017,09,02,09,33,23.70
2017,09,02,09,34,23.80
2017,09,02,09,35,23.80
2017,09,02,09,36,23.80
2017,09,02,09,37,23.80
2017,09,02,09,38,23.90
2017,09,02,09,39,24.00
2017,09,02,09,40,24.00
2017,09,02,09,41,24.10
2017,09,02,09,42,24.10
2017,09,02,09,43,24.20
2017,09,02,09,44,24.30
2017,09,02,09,45,24.30
2017,09,02,09,46,24.40
2017,09,02,09,47,24.40
2017,09,02,09,48,24.40
2017,09,02,09,49,24.40
2017,09,02,09,50,24.40
2017,09,02,09,51,24.40
2017,09,02,09,52,24.40
2017,09,02,09,53,24.30
2017,09,02,09,54,24.30
2017,09,02,09,55,24.40
2017,09,02,09,56,24.50
2017,09,02,09,57,24.50
2017,09,02,09,58,24.60
2017,09,02,09,59,24.70
2017,09,02,10,00,24.70
2017,09,02,10,01,24.70
2017,09,02,10,02,24.80
2017,09,02,10,03,24.90
2017,09,02,10,04,24.90
2017,09,02,10,05,24.80
2017,09,02,10,06,24.70
2017,09,02,10,07,24.60
2017,09,02,10,08,24.60
2017,09,02,10,09,24.60
2017,09,02,10,10,24.50
2017,09,02,10,11,24.50
2017,09,02,10,12,24.40
2017,09,02,10,13,24.40
2017,09,02,10,14,24.40
2017,09,02,10,15,24.40
2017,09,02,10,16,24.50
2017,09,02,10,17,24.50
2017,09,02,10,18,24.60
2017,09,02,10,19,24.60
2017,09,02,10,20,24.70
2017,09,02,10,21,24.70
2017,09,02,10,22,24.70
2017,09,02,10,23,24.70
2017,09,02,10,24,24.70
2017,09,02,10,25,24.70
2017,09,02,10,26,24.70
2017,09,02,10,27,24.70
2017,09,02,10,28,24.60
2017,09,02,10,29,24.50
2017,09,02,10,30,24.50
2017,09,02,10,31,24.40
2017,09,02,10,32,24.30
2017,09,02,10,33,24.30
2017,09,02,10,34,24.30
2017,09,02,10,35,24.30
2017,09,02,10,36,24.30
2017,09,02,10,37,24.20
2017,09,02,10,38,24.20
2017,09,02,10,39,24.10
2017,09,02,10,40,24.10
2017,09,02,10,41,24.10
2017,09,02,10,42,24.10
2017,09,02,10,43,24.10
2017,09,02,10,44,24.20
2017,09,02,10,45,24.30
2017,09,02,10,46,24.30
2017,09,02,10,47,24.40
2017,09,02,10,48,24.50
2017,09,02,10,49,24.50
2017,09,02,10,50,24.70
2017,09,02,10,51,24.80
2017,09,02,10,52,24.90
2017,09,02,10,53,25.10
2017,09,02,10,54,25.20
2017,09,02,10,55,25.30
2017,09,02,10,56,25.30
2017,09,02,10,57,25.30
2017,09,02,10,58,25.30
2017,09,02,10,59,25.30
2017,09,02,11,00,25.40
2017,09,02,11,01,25.40
2017,09,02,11,02,25.40
2017,09,02,11,03,25.50
2017,09,02,11,04,25.50
2017,09,02,11,05,25.60
2017,09,02,11,06,25.60
2017,09,02,11,07,25.60
2017,09,02,11,08,25.60
2017,09,02,11,09,25.60
2017,09,02,11,10,25.60
2017,09,02,11,11,25.60
2017,09,02,11,12,25.60
2017,09,02,11,13,25.60
2017,09,02,11,14,25.70
2017,09,02,11,15,25.70
2017,09,02,11,16,25.80
2017,09,02,11,17,25.90
2017,09,02,11,18,25.80
2017,09,02,11,19,25.60
2017,09,02,11,20,25.60
2017,09,02,11,21,25.50
2017,09,02,11,22,25.50
2017,09,02,11,23,25.60
2017,09,02,11,24,25.70
2017,09,02,11,25,25.80
2017,09,02,11,26,25.80
2017,09,02,11,27,25.80
2017,09,02,11,28,25.80
2017,09,02,11,29,25.80
2017,09,02,11,30,25.70
2017,09,02,11,31,25.60
2017,09,02,11,32,25.60
2017,09,02,11,33,25.60
2017,09,02,11,34,25.70
2017,09,02,11,35,25.80
2017,09,02,11,36,25.80
2017,09,02,11,37,25.80
2017,09,02,11,38,25.70
2017,09,02,11,39,25.60
2017,09,02,11,40,25.60
2017,09,02,11,41,25.70
2017,09,02,11,42,25.70
2017,09,02,11,43,25.70
2017,09,02,11,44,25.70
2017,09,02,11,45,25.70
2017,09,02,11,46,25.70
2017,09,02,11,47,25.60
2017,09,02,11,48,25.70
2017,09,02,11,49,25.70
2017,09,02,11,50,25.80
2017,09,02,11,51,25.80
2017,09,02,11,52,25.90
2017,09,02,11,53,25.90
2017,09,02,11,54,26.00
2017,09,02,11,55,26.00
2017,09,02,11,56,26.10
2017,09,02,11,57,26.20
2017,09,02,11,58,26.30
2017,09,02,11,59,26.30
2017,09,02,12,00,26.30
2017,09,02,12,01,26.40
2017,09,02,12,02,26.40
2017,09,02,12,03,26.40
2017,09,02,12,04,26.40
2017,09,02,12,05,26.50
2017,09,02,12,06,26.50
2017,09,02,12,07,26.60
2017,09,02,12,08,26.60
2017,09,02,12,09,26.70
2017,09,02,12,10,26.80
2017,09,02,12,11,26.80
2017,09,02,12,12,26.90
2017,09,02,12,13,27.00
2017,09,02,12,14,27.10
2017,09,02,12,15,27.10
2017,09,02,12,16,27.20
2017,09,02,12,17,27.20
2017,09,02,12,18,27.10
2017,09,02,12,19,27.10
2017,09,02,12,20,26.90
2017,09,02,12,21,26.80
2017,09,02,12,22,26.90
2017,09,02,12,23,26.90
2017,09,02,12,24,26.90
2017,09,02,12,25,26.90
2017,09,02,12,26,26.90
2017,09,02,12,27,26.90
2017,09,02,12,28,26.80
2017,09,02,12,29,26.90
2017,09,02,12,30,26.90
2017,09,02,12,31,27.00
2017,09,02,12,32,27.10
2017,09,02,12,33,27.20
2017,09,02,12,34,27.30
2017,09,02,12,35,27.40
2017,09,02,12,36,27.50
2017,09,02,12,37,27.60
2017,09,02,12,38,27.70
2017,09,02,12,39,27.80
2017,09,02,12,40,28.00
2017,09,02,12,41,28.20
2017,09,02,12,42,28.30
2017,09,02,12,43,28.30
2017,09,02,12,44,28.30
2017,09,02,12,45,28.30
2017,09,02,12,46,28.30
2017,09,02,12,47,28.30
2017,09,02,12,48,28.40
2017,09,02,12,49,28.40
2017,09,02,12,50,28.50
2017,09,02,12,51,28.50
2017,09,02,12,52,28.60
2017,09,02,12,53,28.70
2017,09,02,12,54,28.80
2017,09,02,12,55,28.90
2017,09,02,12,56,28.90
2017,09,02,12,57,28.90
2017,09,02,12,58,28.90
2017,09,02,12,59,28.80
2017,09,02,13,00,28.70
2017,09,02,13,01,28.40
2017,09,02,13,02,28.20
2017,09,02,13,03,28.00
2017,09,02,13,04,27.90
2017,09,02,13,05,27.80
2017,09,02,13,06,27.80
2017,09,02,13,07,27.70
2017,09,02,13,08,27.80
2017,09,02,13,09,27.70
2017,09,02,13,10,27.60
2017,09,02,13,11,27.50
2017,09,02,13,12,27.50
2017,09,02,13,13,27.40
2017,09,02,13,14,27.30
2017,09,02,13,15,27.20
2017,09,02,13,16,27.10
2017,09,02,13,17,27.20
2017,09,02,13,18,27.30
2017,09,02,13,19,27.40
2017,09,02,13,20,27.50
2017,09,02,13,21,27.60
2017,09,02,13,22,27.60
2017,09,02,13,23,27.60
2017,09,02,13,24,27.50
2017,09,02,13,25,27.30
2017,09,02,13,26,27.30
2017,09,02,13,27,27.40
2017,09,02,13,28,27.40
2017,09,02,13,29,27.50
2017,09,02,13,30,27.60
2017,09,02,13,31,27.70
2017,09,02,13,32,27.80
2017,09,02,13,33,28.00
2017,09,02,13,34,28.10
2017,09,02,13,35,28.20
2017,09,02,13,36,28.30
2017,09,02,13,37,28.40
2017,09,02,13,38,28.40
2017,09,02,13,39,28.40
2017,09,02,13,40,28.40
2017,09,02,13,41,28.40
2017,09,02,13,42,28.40
2017,09,02,13,43,28.30
2017,09,02,13,44,28.20
2017,09,02,13,45,28.10
2017,09,02,13,46,28.10
2017,09,02,13,47,28.00
2017,09,02,13,48,27.90
2017,09,02,13,49,27.90
2017,09,02,13,50,27.90
2017,09,02,13,51,27.90
2017,09,02,13,52,27.90
2017,09,02,13,53,27.90
2017,09,02,13,54,27.80
2017,09,02,13,55,27.70
2017,09,02,13,56,27.70
2017,09,02,13,57,27.80
2017,09,02,13,58,27.80
2017,09,02,13,59,27.90
2017,09,02,14,00,28.00
2017,09,02,14,01,28.10
2017,09,02,14,02,28.20
2017,09,02,14,03,28.30
2017,09,02,14,04,28.30
2017,09,02,14,05,28.30
2017,09,02,14,06,28.30
2017,09,02,14,07,28.30
2017,09,02,14,08,28.30
2017,09,02,14,09,28.30
2017,09,02,14,10,28.30
2017,09,02,14,11,28.30
2017,09,02,14,12,28.30
2017,09,02,14,13,28.30
2017,09,02,14,14,28.40
2017,09,02,14,15,28.30
2017,09,02,14,16,28.30
2017,09,02,14,17,28.30
2017,09,02,14,18,28.30
2017,09,02,14,19,28.30
2017,09,02,14,20,28.30
2017,09,02,14,21,28.40
2017,09,02,14,22,28.40
2017,09,02,14,23,28.50
2017,09,02,14,24,28.60
2017,09,02,14,25,28.70
2017,09,02,14,26,28.80
2017,09,02,14,27,28.80
2017,09,02,14,28,28.70
2017,09,02,14,29,28.60
2017,09,02,14,30,28.60
2017,09,02,14,31,28.60
2017,09,02,14,32,28.70
2017,09,02,14,33,28.70
2017,09,02,14,34,28.70
2017,09,02,14,35,28.80
2017,09,02,14,36,28.90
2017,09,02,14,37,28.80
2017,09,02,14,38,28.80
2017,09,02,14,39,28.70
2017,09,02,14,40,28.80
2017,09,02,14,41,28.80
2017,09,02,14,42,28.70
2017,09,02,14,43,28.70
2017,09,02,14,44,28.70
2017,09,02,14,45,28.70
2017,09,02,14,46,28.80
2017,09,02,14,47,28.90
2017,09,02,14,48,28.90
2017,09,02,14,49,28.90
2017,09,02,14,50,28.90
2017,09,02,14,51,28.80
2017,09,02,14,52,28.80
2017,09,02,14,53,28.70
2017,09,02,14,54,28.70
2017,09,02,14,55,28.80
2017,09,02,14,56,28.80
2017,09,02,14,57,28.90
2017,09,02,14,58,28.90
2017,09,02,14,59,28.90
2017,09,02,15,00,29.00
2017,09,02,15,01,29.10
2017,09,02,15,02,29.20
2017,09,02,15,03,29.30
2017,09,02,15,04,29.40
2017,09,02,15,05,29.60
2017,09,02,15,06,29.70
2017,09,02,15,07,29.90
2017,09,02,15,08,30.00
2017,09,02,15,09,30.10
2017,09,02,15,10,30.00
2017,09,02,15,11,30.00
2017,09,02,15,12,29.90
2017,09,02,15,13,29.90
2017,09,02,15,14,29.80
2017,09,02,15,15,29.80
2017,09,02,15,16,29.80
2017,09,02,15,17,29.80
2017,09,02,15,18,29.80
2017,09,02,15,19,29.80
2017,09,02,15,20,29.80
2017,09,02,15,21,29.70
2017,09,02,15,22,29.60
2017,09,02,15,23,29.50
2017,09,02,15,24,29.40
2017,09,02,15,25,29.40
2017,09,02,15,26,29.20
2017,09,02,15,27,29.10
2017,09,02,15,28,29.00
2017,09,02,15,29,28.90
2017,09,02,15,30,28.80
2017,09,02,15,31,28.70
2017,09,02,15,32,28.60
2017,09,02,15,33,28.60
2017,09,02,15,34,28.60
2017,09,02,15,35,28.70
2017,09,02,15,36,28.70
2017,09,02,15,37,28.80
2017,09,02,15,38,28.90
2017,09,02,15,39,29.00
2017,09,02,15,40,29.10
2017,09,02,15,41,29.20
2017,09,02,15,42,29.30
2017,09,02,15,43,29.30
2017,09,02,15,44,29.30
2017,09,02,15,45,29.30
2017,09,02,15,46,29.30
2017,09,02,15,47,29.30
2017,09,02,15,48,29.30
2017,09,02,15,49,29.40
2017,09,02,15,50,29.40
2017,09,02,15,51,29.50
2017,09,02,15,52,29.50
2017,09,02,15,53,29.60
2017,09,02,15,54,29.70
2017,09,02,15,55,29.70
2017,09,02,15,56,29.70
2017,09,02,15,57,29.70
2017,09,02,15,58,29.70
2017,09,02,15,59,29.70
2017,09,02,16,00,29.60
2017,09,02,16,01,29.60
2017,09,02,16,02,29.60
2017,09,02,16,03,29.60
2017,09,02,16,04,29.60
2017,09,02,16,05,29.60
2017,09,02,16,06,29.70
2017,09,02,16,07,29.70
2017,09,02,16,08,29.70
2017,09,02,16,09,29.70
2017,09,02,16,10,29.70
2017,09,02,16,11,29.70
2017,09,02,16,12,29.70
2017,09,02,16,13,29.70
2017,09,02,16,14,29.70
2017,09,02,16,15,29.70
2017,09,02,16,16,29.70
2017,09,02,16,17,29.80
2017,09,02,16,18,29.90
2017,09,02,16,19,30.10
2017,09,02,16,20,30.20
2017,09,02,16,21,30.20
2017,09,02,16,22,30.20
2017,09,02,16,23,30.30
2017,09,02,16,24,30.30
2017,09,02,16,25,30.30
2017,09,02,16,26,30.20
2017,09,02,16,27,30.20
2017,09,02,16,28,30.30
2017,09,02,16,29,30.20
2017,09,02,16,30,30.10
2017,09,02,16,31,30.10
2017,09,02,16,32,30.10
2017,09,02,16,33,30.20
2017,09,02,16,34,30.20
2017,09,02,16,35,30.10
2017,09,02,16,36,30.10
2017,09,02,16,37,30.10
2017,09,02,16,38,30.10
2017,09,02,16,39,30.10
2017,09,02,16,40,30.10
2017,09,02,16,41,30.10
2017,09,02,16,42,30.20
2017,09,02,16,43,30.30
2017,09,02,16,44,30.40
2017,09,02,16,45,30.50
2017,09,02,16,46,30.50
2017,09,02,16,47,30.60
2017,09,02,16,48,30.60
2017,09,02,16,49,30.60
2017,09,02,16,50,30.50
2017,09,02,16,51,30.50
2017,09,02,16,52,30.50
2017,09,02,16,53,30.50
2017,09,02,16,54,30.50
2017,09,02,16,55,30.50
2017,09,02,16,56,30.60
2017,09,02,16,57,30.50
2017,09,02,16,58,30.50
2017,09,02,16,59,30.40
2017,09,02,17,00,30.40
2017,09,02,17,01,30.40
2017,09,02,17,02,30.50
2017,09,02,17,03,30.50
2017,09,02,17,04,30.60
2017,09,02,17,05,30.60
2017,09,02,17,06,30.60
2017,09,02,17,07,30.50
2017,09,02,17,08,30.50
2017,09,02,17,09,30.50
2017,09,02,17,10,30.50
2017,09,02,17,11,30.60
2017,09,02,17,12,30.60
2017,09,02,17,13,30.70
2017,09,02,17,14,30.70
2017,09,02,17,15,30.70
2017,09,02,17,16,30.80
2017,09,02,17,17,30.80
2017,09,02,17,18,30.90
2017,09,02,17,19,30.90